Location: Bad Salzschlirf
(50.3750°N, 9.3000°E)
Time: 17:09:03
(UTC+01:00)

ISS - Pass Details

Date: 21 January 2020
Orbit: 415 x 421 km, 51.6° (Epoch: 18 January)

Event Time Altitude Azimuth Distance (km) Brightness Sun altitude
Rises 19:10:19 0° 216° (SW) 2,354 0.7 -20.9°
Reaches altitude 10° 19:12:37 10° 203° (SSW) 1,492 -0.6 -21.3°
Enters shadow 19:14:05 19° 182° (S) 1,054 -1.7 -21.5°
